[[{"header":{"parameterUnit":"m.s-1","parameterCategory":1,"la1":30.2991,"la2":30.254,"lo1":-89.0895,"lo2":-89.0444,"dy":0.0017,"dx":0.0017,"nx":28,"ny":28,"refTime":"2023-11-08T03:00:00:Z","depth":0,"parameterNumber":2,"parameterNumberName":"U-component_of_WINDS"},"data":[0,0,0,0,0,0,0,0,0,0,0,0,0,0,0,0,0,0,0,0,0,0,0,0,0,0,0,0,0,0,0,0,0,0,0,0,0,0,0,0,0,0,0,0,0,0,0,0,0,0,0,0,0,0,0,0,0,0,-0.444,-0.444,0,-0.4422,-0.4422,-0.4422,-0.441,-0.441,-0.441,-0.441,-0.4391,-0.4391,-0.439,0,0,0,0,0,0,0,0,0,0,0,0,0,-0.4462,-0.4461,-0.444,-0.444,-0.4439,-0.4422,-0.4422,-0.4422,-0.441,-0.441,-0.441,-0.441,-0.4391,-0.4391,-0.439,0,0,0,0,0,0,0,0,0,0,0,0,0,-0.4449,-0.4461,-0.444,-0.4431,-0.443,-0.4422,-0.4422,-0.4422,-0.441,-0.441,-0.441,-0.441,-0.4391,-0.4391,-0.439,-0.4389,0,0,-0.4388,-0.4388,0,0,0,0,0,0,0,0,-0.445,-0.4448,-0.4433,-0.4432,-0.4431,-0.4418,-0.4423,-0.4411,-0.441,-0.4418,-0.441,-0.4409,-0.44,-0.4399,-0.4396,-0.4388,-0.4387,-0.4388,-0.4388,-0.4388,-0.4388,0,0,0,0,0,0,0,-0.4451,-0.4449,-0.4433,-0.4433,-0.4431,-0.4428,-0.4426,-0.4421,-0.441,-0.4417,-0.4416,-0.4414,-0.44,-0.4396,-0.4395,-0.4387,-0.4388,-0.4388,-0.4387,-0.4387,-0.4376,-0.4376,0,0,0,0,0,0,-0.4453,-0.445,-0.4433,-0.4432,-0.444,-0.4428,-0.4426,-0.4422,-0.441,-0.4408,-0.4414,-0.4414,-0.4398,-0.4396,-0.4395,-0.4392,-0.4388,-0.4387,-0.4387,-0.4376,-0.4376,-0.4376,0,0,0,0,0,0,-0.4453,-0.4452,-0.4434,-0.4441,-0.4438,-0.4427,-0.4424,-0.4422,-0.4419,-0.4408,-0.4406,-0.4413,-0.4397,-0.4396,-0.439,-0.4391,-0.4387,-0.4386,-0.4376,-0.4376,-0.4376,-0.4386,0,0,0,0,0,0,-0.4454,-0.4452,-0.4452,-0.4441,-0.4438,-0.4431,-0.4424,-0.4422,-0.4418,-0.4417,-0.4406,-0.4404,-0.4397,-0.4391,-0.439,-0.439,-0.4386,-0.4376,-0.4376,-0.4376,-0.4386,-0.4387,-0.4387,0,0,0,0,0,-0.4455,-0.4455,-0.4452,-0.445,-0.4438,-0.4431,-0.4429,-0.4421,-0.4418,-0.4417,-0.441,-0.4405,-0.4391,-0.4391,-0.4389,-0.4389,-0.4376,-0.4376,-0.4376,-0.4385,-0.4386,-0.4387,0,0,0,0,0,0,-0.4466,-0.4454,-0.445,-0.4447,-0.444,-0.4429,-0.4428,-0.4422,-0.4416,-0.4415,-0.4405,-0.4403,-0.4399,-0.4393,-0.4393,-0.4386,-0.4383,-0.4382,-0.439,-0.4391,-0.4392,-0.4393,-0.4385,0,0,0,0,0,-0.4469,-0.4464,-0.4453,-0.4452,-0.4448,-0.4439,-0.4435,-0.443,-0.4422,-0.4419,-0.4412,-0.4404,-0.4398,-0.4394,-0.4388,-0.4385,-0.4382,-0.4384,-0.4385,-0.4385,-0.4385,-0.4382,-0.4382,-0.4377,-0.4377,-0.4377,0,0,-0.4473,-0.4466,-0.4464,-0.4454,-0.4448,-0.4443,-0.4436,-0.4432,-0.4428,-0.4418,-0.4413,-0.4407,-0.4398,-0.4393,-0.4391,-0.4389,-0.4386,-0.4385,-0.4386,-0.4386,-0.4382,-0.4383,-0.4383,-0.4377,-0.4377,-0.4377,0,0,-0.4479,-0.4473,-0.4471,-0.4465,-0.4456,-0.4449,-0.4448,-0.4438,-0.4433,-0.4428,-0.442,-0.4415,-0.4405,-0.4399,-0.4394,-0.4396,-0.4391,-0.4394,-0.4399,-0.4396,-0.4396,-0.4396,-0.4396,-0.4396,-0.4394,-0.4394,-0.4394,0,-0.4486,-0.4479,-0.447,-0.4466,-0.4461,-0.4452,-0.4449,-0.4444,-0.4433,-0.443,-0.4427,-0.4414,-0.4407,-0.4401,-0.4401,-0.4398,-0.4396,-0.4396,-0.4397,-0.4397,-0.4397,-0.4397,-0.4397,-0.4395,-0.4395,-0.4395,-0.4395,0,-0.4487,-0.4482,-0.4481,-0.4471,-0.4466,-0.4463,-0.4453,-0.4449,-0.4444,-0.4437,-0.4431,-0.4422,-0.4414,-0.4412,-0.4406,-0.4404,-0.4403,-0.4399,-0.4395,-0.4398,-0.4398,-0.4398,-0.4396,-0.4395,-0.4395,-0.4395,0,0,-0.45,-0.4484,-0.4484,-0.4479,-0.4468,-0.4464,-0.4459,-0.4451,-0.4448,-0.444,-0.4436,-0.4427,-0.4423,-0.4418,-0.4411,-0.4409,-0.441,-0.4405,-0.4404,-0.4406,-0.4406,-0.4408,-0.4409,-0.4406,-0.4406,-0.4406,-0.4406,0,-0.4503,-0.4495,-0.4487,-0.4481,-0.4476,-0.4467,-0.4463,-0.4455,-0.4449,-0.4443,-0.4436,-0.4429,-0.4425,-0.4422,-0.4419,-0.441,-0.441,-0.441,-0.4401,-0.4401,-0.4403,-0.4409,-0.4412,-0.4412,-0.4406,-0.4406,-0.4406,0,-0.4506,-0.4499,-0.4494,-0.4482,-0.448,-0.4476,-0.4468,-0.4463,-0.4453,-0.4449,-0.4442,-0.4436,-0.4429,-0.4426,-0.4417,-0.4418,-0.4413,-0.4409,-0.4408,-0.4407,-0.4404,-0.4407,-0.4412,-0.4412,-0.4406,-0.4406,-0.4406,0,-0.4516,-0.4505,-0.45,-0.4496,-0.4482,-0.448,-0.4474,-0.4465,-0.446,-0.4452,-0.4449,-0.4441,-0.4436,-0.4429,-0.442,-0.4418,-0.4412,-0.4408,-0.4407,-0.4407,-0.4406,-0.4406,-0.441,-0.4404,-0.4404,-0.4404,-0.4404,0,-0.452,-0.4517,-0.4503,-0.45,-0.4496,-0.4486,-0.4482,-0.4475,-0.4467,-0.4462,-0.4453,-0.4448,-0.4436,-0.443,-0.4422,-0.4416,-0.4414,-0.4409,-0.4407,-0.441,-0.441,-0.4407,-0.4406,-0.4404,-0.4404,-0.4404,-0.4404,0,-0.453,-0.4521,-0.4514,-0.4502,-0.4499,-0.4496,-0.4485,-0.4482,-0.4474,-0.4468,-0.4466,-0.4454,-0.4446,-0.4436,-0.4425,-0.4419,-0.4413,-0.4411,-0.4416,-0.4415,-0.4415,-0.4415,-0.4417,-0.4416,-0.441,-0.4411,-0.4411,0,-0.4533,-0.453,-0.4518,-0.4514,-0.4508,-0.4502,-0.4497,-0.4487,-0.4482,-0.4471,-0.4468,-0.4459,-0.4452,-0.4439,-0.4429,-0.442,-0.4417,-0.4418,-0.4415,-0.4418,-0.4416,-0.4416,-0.4415,-0.4419,-0.4419,-0.4419,-0.4419,0,-0.454,-0.4535,-0.4529,-0.452,-0.4515,-0.4507,-0.45,-0.4497,-0.4485,-0.448,-0.4471,-0.4465,-0.4454,-0.4445,-0.4434,-0.4428,-0.4421,-0.442,-0.4419,-0.4422,-0.4425,-0.4423,-0.4418,-0.442,-0.442,-0.442,-0.442,-0.442,-0.4546,-0.4543,-0.4533,-0.4526,-0.4519,-0.4512,-0.4507,-0.4499,-0.4492,-0.4482,-0.4476,-0.4468,-0.4458,-0.4443,-0.4437,-0.4429,-0.4427,-0.4426,-0.4426,-0.4426,-0.4426,-0.4426,-0.4427,-0.4427,-0.4427,-0.4427,-0.4427,0,-0.4552,-0.4545,-0.4538,-0.4528,-0.4522,-0.4517,-0.4507,-0.4503,-0.4495,-0.4487,-0.4479,-0.4469,-0.446,-0.4449,-0.444,-0.4436,-0.4432,-0.4433,-0.4433,-0.4432,-0.4429,-0.4431,-0.4436,-0.4436,-0.4436,-0.4436,-0.4436,-0.4436,-0.4554,-0.4548,-0.4542,-0.4532,-0.4525,-0.4517,-0.4513,-0.4506,-0.4499,-0.4488,-0.448,-0.4473,-0.4464,-0.4453,-0.4444,-0.4441,-0.4437,-0.4439,-0.4435,-0.4433,-0.4432,-0.4431,-0.4433,-0.4439,-0.4439,-0.4439,-0.4439,-0.4439]},{"header":{"parameterUnit":"m.s-1","parameterCategory":1,"la1":30.2991,"la2":30.254,"lo1":-89.0895,"lo2":-89.0444,"dy":0.0017,"dx":0.0017,"nx":28,"ny":28,"refTime":"2023-11-08T03:00:00:Z","depth":0,"parameterNumber":3,"parameterNumberName":"V-component_of_WINDS"},"data":[0,0,0,0,0,0,0,0,0,0,0,0,0,0,0,0,0,0,0,0,0,0,0,0,0,0,0,0,0,0,0,0,0,0,0,0,0,0,0,0,0,0,0,0,0,0,0,0,0,0,0,0,0,0,0,0,0,0,1.5713,1.5713,0,1.5658,1.5658,1.5657,1.5602,1.5602,1.5601,1.56,1.5543,1.5542,1.5542,0,0,0,0,0,0,0,0,0,0,0,0,0,1.5771,1.577,1.5713,1.5712,1.5712,1.5658,1.5658,1.5657,1.5603,1.5602,1.5601,1.56,1.5543,1.5542,1.5541,0,0,0,0,0,0,0,0,0,0,0,0,0,1.5734,1.577,1.5713,1.5678,1.5675,1.5659,1.5658,1.5657,1.5603,1.5602,1.5601,1.56,1.5544,1.5543,1.5541,1.5555,0,0,1.5537,1.5537,0,0,0,0,0,0,0,0,1.5736,1.5732,1.5684,1.5681,1.5676,1.5636,1.5657,1.5623,1.5603,1.563,1.56,1.5599,1.5575,1.5571,1.5563,1.5553,1.555,1.5537,1.5537,1.5536,1.5536,0,0,0,0,0,0,0,1.5739,1.5734,1.5691,1.5683,1.5679,1.5665,1.5659,1.565,1.5609,1.5628,1.5623,1.5618,1.5573,1.5564,1.5561,1.5549,1.5537,1.5536,1.5535,1.5535,1.555,1.5551,0,0,0,0,0,0,1.5747,1.5737,1.5693,1.569,1.5704,1.5665,1.5658,1.565,1.5609,1.5602,1.5619,1.5615,1.5567,1.5563,1.5559,1.5574,1.5536,1.5535,1.5534,1.5549,1.555,1.5552,0,0,0,0,0,0,1.5748,1.5743,1.5695,1.5712,1.5705,1.5665,1.5657,1.565,1.5641,1.5602,1.5595,1.5618,1.5566,1.5561,1.5557,1.5572,1.5534,1.5533,1.5548,1.5549,1.5551,1.5604,0,0,0,0,0,0,1.575,1.5744,1.5749,1.5713,1.5704,1.5694,1.5658,1.5649,1.5639,1.5635,1.56,1.5593,1.5565,1.556,1.5556,1.5569,1.5532,1.5546,1.5548,1.555,1.5601,1.5607,1.5613,0,0,0,0,0,1.5752,1.5765,1.5749,1.5744,1.5709,1.5695,1.569,1.5658,1.5641,1.5645,1.5621,1.5594,1.5571,1.556,1.5555,1.5568,1.5545,1.5548,1.555,1.5598,1.5606,1.5613,0,0,0,0,0,0,1.5803,1.576,1.5742,1.5743,1.5723,1.5686,1.569,1.5667,1.5652,1.5648,1.5608,1.5601,1.5602,1.5585,1.5573,1.5581,1.5554,1.5556,1.5592,1.5599,1.5605,1.561,1.5531,0,0,0,0,0,1.5814,1.5807,1.5769,1.5774,1.5765,1.573,1.5723,1.57,1.5678,1.5669,1.5644,1.5623,1.5612,1.5604,1.5591,1.5598,1.5591,1.5605,1.5611,1.5617,1.5619,1.5623,1.563,1.556,1.556,1.556,0,0,1.5838,1.5813,1.581,1.5784,1.5766,1.5759,1.5723,1.5717,1.5712,1.5668,1.5663,1.5645,1.5619,1.5622,1.5621,1.5607,1.5637,1.562,1.5624,1.5624,1.5627,1.5633,1.5639,1.5562,1.5562,1.5561,0,0,1.5877,1.5857,1.586,1.5843,1.5817,1.5794,1.5795,1.5762,1.5748,1.5743,1.571,1.5704,1.5684,1.5668,1.5657,1.5694,1.5669,1.5691,1.5722,1.5727,1.5733,1.5737,1.5752,1.5757,1.5693,1.5693,1.5693,0,1.5909,1.5898,1.5864,1.5861,1.5851,1.5812,1.5815,1.5801,1.5771,1.5766,1.575,1.5726,1.5706,1.5705,1.5715,1.5707,1.5707,1.5694,1.5735,1.5739,1.5743,1.5756,1.5762,1.5696,1.5695,1.5695,1.5695,0,1.5939,1.5932,1.5938,1.5912,1.5903,1.5903,1.587,1.5864,1.5843,1.5822,1.5819,1.5794,1.5776,1.5774,1.5753,1.5771,1.5763,1.5742,1.5715,1.5753,1.5765,1.577,1.57,1.5699,1.5698,1.5697,0,0,1.6007,1.5965,1.5967,1.5956,1.5926,1.592,1.5919,1.5903,1.5899,1.5881,1.588,1.5866,1.5847,1.5835,1.5811,1.5816,1.5849,1.5794,1.5793,1.5806,1.5869,1.5886,1.5893,1.5832,1.5833,1.5834,1.5872,0,1.6041,1.6038,1.6009,1.6014,1.6008,1.5972,1.5971,1.5953,1.5934,1.5927,1.5905,1.5896,1.5871,1.5864,1.5867,1.5844,1.5861,1.5841,1.5832,1.5832,1.584,1.5899,1.5916,1.5953,1.5876,1.5877,1.5878,0,1.608,1.6067,1.6071,1.6043,1.604,1.604,1.6024,1.6017,1.5996,1.5982,1.5971,1.5945,1.5943,1.5918,1.5916,1.5903,1.5897,1.5886,1.5887,1.5885,1.5857,1.5899,1.5964,1.597,1.5884,1.5884,1.5883,0,1.6131,1.6113,1.6114,1.6106,1.6073,1.6074,1.6061,1.6039,1.6032,1.6018,1.6013,1.5999,1.5991,1.5981,1.5953,1.5937,1.5955,1.5927,1.5944,1.5945,1.5949,1.5949,1.6015,1.5945,1.5945,1.5945,1.5945,0,1.6173,1.6178,1.6137,1.6138,1.6143,1.611,1.6116,1.6098,1.608,1.6078,1.6046,1.6044,1.6007,1.6001,1.5979,1.5982,1.5978,1.5967,1.5962,1.5971,1.5972,1.5967,1.5964,1.5946,1.5946,1.5946,1.5946,0,1.623,1.6203,1.6202,1.6172,1.6164,1.617,1.6144,1.6144,1.6124,1.6121,1.6118,1.6087,1.6079,1.605,1.6035,1.602,1.603,1.6018,1.6037,1.6034,1.6053,1.6052,1.6118,1.6126,1.6051,1.6051,1.6052,0,1.6259,1.6262,1.6233,1.6229,1.6217,1.6211,1.6204,1.6173,1.6168,1.6146,1.6149,1.6139,1.6129,1.6118,1.6094,1.6083,1.6071,1.6095,1.6069,1.6079,1.6073,1.6074,1.6075,1.6101,1.6102,1.6102,1.6103,0,1.6313,1.63,1.6291,1.6279,1.6272,1.6261,1.6248,1.6247,1.6212,1.6207,1.62,1.6192,1.6178,1.6169,1.6154,1.614,1.6117,1.6112,1.6115,1.6125,1.6136,1.6132,1.6054,1.611,1.6109,1.6109,1.6109,1.6108,1.6357,1.6359,1.634,1.6332,1.6319,1.6308,1.6307,1.6288,1.6281,1.6267,1.625,1.6245,1.6226,1.6204,1.6193,1.6189,1.6176,1.6181,1.6182,1.6184,1.6189,1.6137,1.6186,1.6186,1.6186,1.6185,1.6185,0,1.6411,1.6397,1.639,1.6374,1.6369,1.6348,1.6333,1.6329,1.6326,1.6311,1.6302,1.6295,1.6286,1.6263,1.6252,1.6254,1.6243,1.6253,1.6252,1.625,1.6201,1.6199,1.6262,1.6262,1.6262,1.6262,1.6262,1.6262,1.6438,1.6441,1.6426,1.6423,1.6409,1.6405,1.6398,1.6389,1.6377,1.637,1.6363,1.6348,1.6331,1.6319,1.6311,1.6305,1.6303,1.6316,1.6306,1.626,1.6253,1.6246,1.6245,1.6316,1.6316,1.6356,1.6356,1.6356]}]]